[{"OBJECT_NAME":"COSMOS 2407","OBJECT_ID":"2004-028A","EPOCH":"2026-09-12T02:34:46.094880","MEAN_MOTION":13.76340069,"ECCENTRICITY":0.003938,"INCLINATION":82.9645,"RA_OF_ASC_NODE":10.4467,"ARG_OF_PERICENTER":11.3084,"MEAN_ANOMALY":160.8101,"EPHEMERIS_TYPE":0,"CLASSIFICATION_TYPE":"U","NORAD_CAT_ID":28380,"ELEMENT_SET_NO":999,"REV_AT_EPOCH":11183,"BSTAR":0.000034178,"MEAN_MOTION_DOT":4.9e-7,"MEAN_MOTION_DDOT":0},{"OBJECT_NAME":"COSMOS 2414","OBJECT_ID":"2005-002A","EPOCH":"2026-09-11T23:22:23.831616","MEAN_MOTION":13.87933747,"ECCENTRICITY":0.0041512,"INCLINATION":82.9538,"RA_OF_ASC_NODE":338.0024,"ARG_OF_PERICENTER":82.3822,"MEAN_ANOMALY":278.2054,"EPHEMERIS_TYPE":0,"CLASSIFICATION_TYPE":"U","NORAD_CAT_ID":28521,"ELEMENT_SET_NO":999,"REV_AT_EPOCH":9585,"BSTAR":0.000037081,"MEAN_MOTION_DOT":6.1e-7,"MEAN_MOTION_DDOT":0},{"OBJECT_NAME":"COSMOS 2463","OBJECT_ID":"2010-017A","EPOCH":"2026-09-11T22:09:14.581152","MEAN_MOTION":13.71670095,"ECCENTRICITY":0.003472,"INCLINATION":82.964,"RA_OF_ASC_NODE":185.9829,"ARG_OF_PERICENTER":248.8415,"MEAN_ANOMALY":179.4463,"EPHEMERIS_TYPE":0,"CLASSIFICATION_TYPE":"U","NORAD_CAT_ID":36519,"ELEMENT_SET_NO":999,"REV_AT_EPOCH":81982,"BSTAR":0.000022237,"MEAN_MOTION_DOT":3.5e-7,"MEAN_MOTION_DDOT":0}]